Лагодехи

Грузия     41°49′22″N   46°16′31″E
темп.,
°C
ветер,
м/с
пор.,
м/с
влажн.,
%
обл.,
%
осадки,
мм/ч
давл.,
гПа
погр.,
м
13 апреля, вт
вт1301:00+11ссв11875 0.7 102013
04:00+10ссз019482 0.8 102010
07:00+11ю128879 0.1 1021143
10:00+15зюз227531 0.1 1021601
13:00+18зюз226119 0.4 10191019
16:00+18зсз115991 0.8 1016475
19:00+14сз3482100 0.9 101692
22:00+14всв128293 2.3 101738
14 апреля, ср
ср1401:00+13св0181100 0.6 101632
04:00+12в018959 1.8 101524
07:00+11юв119191 2.0 101632
10:00+12сз1391100 4.6 1017166
13:00+13всв3376100 2.3 1016387
16:00+17з345272 2.8 10151132
19:00+15ююз11594 0.0 101412
22:00+11св22560 0.0 101615
15 апреля, чт
чт1501:00+10ссв11551 0.0 101615
04:00+9ссв125310 0.0 101715
07:00+9с11530 0.0 101821
10:00+15з22475 0.0 1017369
13:00+20з34370 0.0 1015940
16:00+22з23295 0.0 10141434
19:00+18ююв114597 0.0 101411
22:00
16 апреля, пт
пт1601:00+13ссв114472 0.0 101512
04:00+11в224795 0.0 101711
07:00+11в115995 0.0 101811
10:00+16ююз21536 0.0 1018431
13:00+20ююз22455 0.1 1016988
16:00+22юз11384 0.2 10141123
19:00+17с2260100 0.3 101515
22:00+16св225646 0.3 101726
17 апреля, сб
сб1701:00+12ссз22825 0.1 101931
04:00+11ссз128032 0.1 101925
07:00+11ссв1174100 0.0 101817
10:00+17з1162100 0.0 1017331
13:00+21з224589 0.0 1016814
16:00+23з113882 0.0 1013843
19:00+19с2257100 0.0 101418
22:00+17ссв2260100 0.3 101526